Content
SEND FEEDBACK

Daily
Averages
Monthly
Summary
United States of America

SWANNANOA, NORTH CAROLINA


Home > North America > United States > North Carolina
Elevation: 2265 feet     Latitude: 35 36N     Longitude: 082 32W

WEATHER
 
SELECT A DAY
Number of Records: 225,765;   Date Range: 1/1/95 - 7/27/14
 
SHARE

PRINT THIS DATA

[ ← Previous Day ]
WEATHER ALMANAC - APRIL 24, 2013
[ Next Day → ]
[ °C ]   °F
Weather ElementAverageHighLow
Temperature58 °F70 °F (3:54 pm)44.1 °F (6:54 am)
Dewpoint49 °F55 °F (5:54 pm)42.1 °F (6:54 am)
Humidity73.5 %93 % (4:54 am)53 % (3:54 pm)
Barometer30.06 in30.13 in (11:19 pm)30.01 in (3:54 pm)
Wind Speed10.5 mph20.7 mph (10:54 am)
Wind Gust31.1 mph (11:54 pm)
Weather ElementAverage
Visibility10 mi
Wind DirectionSSW (186.8 °)

Weather ElementTotal
Precipitation---
Heating Degree Days8 (Base 65)
Growing Degree Days7.1 (Base 50)
Averaged from 25 records on April 24, 2013
WEATHER CONDITIONS BREAKOUT
WIND DIRECTION BREAKOUT
WEATHER BY HOUR - APRIL 24, 2013
[ °C ]   °F
Local TimeTemperatureDewpointHumidityBarometerVisibilityWind DirectionWind SpeedGust SpeedPrecipitationEventsConditions
1:54 AM54.0 °F44.1 °F69 %30.09 in10.0 miSE (140°)5.8 mphClear
2:54 AM50.0 °F44.1 °F80 %30.09 in10.0 miCalmClear
3:54 AM48.0 °F43.0 °F83 %30.08 in10.0 miCalmClear
4:54 AM45.0 °F43.0 °F93 %30.08 in10.0 miCalmClear
5:54 AM44.6 °F42.8 °F93 %30.11 in10.0 miCalmClear
6:54 AM44.1 °F42.1 °F93 %30.08 in10.0 miNNW (330°)3.5 mphClear
7:54 AM48.9 °F45.0 °F86 %30.09 in10.0 miCalmClear
8:54 AM55.0 °F46.0 °F72 %30.08 in10.0 miSSE (160°)5.8 mphClear
9:54 AM63.0 °F48.0 °F58 %30.04 in10.0 miSouth (190°)17.3 mph24.2 mphClear
10:54 AM64.9 °F50.0 °F58 %30.04 in10.0 miSouth (190°)20.7 mph25.3 mphClear
11:54 AM66.9 °F50.0 °F54 %30.06 in10.0 miSouth (190°)20.7 mph28.8 mphMostly Cloudy
12:54 PM66.9 °F50.0 °F54 %30.06 in10.0 miSouth (180°)15.0 mphPartly Cloudy
1:54 PM68.0 °F51.1 °F55 %30.05 in10.0 miSouth (190°)19.6 mph26.5 mphClear
2:54 PM68.0 °F51.1 °F55 %30.02 in10.0 miSSW (200°)18.4 mph24.2 mphClear
3:54 PM70.0 °F52.0 °F53 %30.01 in10.0 miSSW (200°)13.8 mph21.9 mphPartly Cloudy
4:54 PM66.9 °F52.0 °F59 %30.02 in10.0 miSSW (210°)16.1 mph23.0 mphOvercast
5:54 PM63.0 °F55.0 °F75 %30.04 in10.0 miSSW (210°)18.4 mph25.3 mph0.00 inRainLight Rain
6:54 PM64.0 °F55.0 °F73 %30.04 in10.0 miSSW (200°)10.4 mph0.00 inPartly Cloudy
7:54 PM62.1 °F55.0 °F78 %30.03 in10.0 miSouth (190°)5.8 mphOvercast
8:54 PM61.0 °F55.0 °F81 %30.03 in10.0 miSW (220°)6.9 mphMostly Cloudy
9:54 PM60.1 °F55.0 °F83 %30.04 in10.0 miWest (260°)4.6 mphMostly Cloudy
10:44 PM55.4 °F51.8 °F88 %30.12 in10.0 miNorth (360°)15.0 mphOvercast
10:54 PM55.0 °F50.0 °F83 %30.08 in10.0 miNorth (350°)13.8 mph23.0 mphOvercast
11:19 PM53.6 °F48.2 °F82 %30.13 in10.0 miNorth (360°)12.7 mphOvercast
11:54 PM51.1 °F45.0 °F80 %30.09 in10.0 miNNW (340°)18.4 mph31.1 mphOvercast
Hourly data recorded from KAVL, located miles away from Swannanoa, North Carolina







STORIES FROM OUR PARTNERS